Tracking 30107 objects as of 25-Jan-2025
HD Live streaming from Space Station
objects crossing your sky now

STARLINK-30844

Track STARLINK-30844 now!
10-day predictions
STARLINK-30844 is classified as:


NORAD ID: 58403
Int'l Code: 2023-180B
Perigee: 565.6 km
Apogee: 567.1 km
Inclination: 43.0 °
Period: 95.8 minutes
Semi major axis: 6937 km
RCS: Unknown
Launch date: November 22, 2023
Source: United States (US)
Launch site: AIR FORCE EASTERN TEST RANGE (AFETR)
Your satellite tracking list
Your tracking list is empty




NASA's NSSDC Master Catalog

Two Line Element Set (TLE):
1 58403U 23180B   25025.53946120  .00007095  00000-0  54024-3 0  9997
2 58403  43.0010 114.2416 0001095 258.2706 101.8013 15.02502492 66077
Source of the keplerian elements: AFSPC